Location: Unspecified
(52.4292°N, 19.3359°E)
Time: 06:31:55
(UTC+02:00)

Vanguard 3 - Visible Passes

Search period start: 24 May 2024 00:00
Search period end: 03 June 2024 00:00
Orbit: 509 x 3233 km, 33.3° (Epoch: 23 May)

Date Brightness Start Highest point End Pass type
(mag) Time Alt. Az. Time Alt. Az. Time Alt. Az.
24 May 10.5 00:26:54 10° WSW 00:37:43 23° SSW 00:43:38 20° S visible
24 May 10.2 23:08:17 10° WSW 23:18:45 28° SSW 23:28:26 17° SSE visible
25 May 10.8 01:23:18 10° WSW 01:31:12 15° SW 01:32:31 15° SSW visible
25 May 10.0 21:50:37 10° WSW 21:59:57 30° S 22:13:24 10° SE visible
26 May 10.5 00:02:54 10° WSW 00:12:24 21° SSW 00:17:36 18° S visible
26 May 10.3 22:44:21 10° WSW 22:53:36 25° SSW 23:02:52 15° SSE visible
27 May 10.8 01:00:03 10° WSW 01:05:52 13° SW 01:06:59 13° SSW visible
27 May 10.0 21:26:46 10° WSW 21:35:00 27° S 21:46:55 10° SE visible
27 May 10.5 23:39:10 10° WSW 23:47:12 18° SSW 23:52:24 15° S visible
28 May 10.3 22:20:34 10° WSW 22:28:34 22° SSW 22:37:56 12° SSE visible
29 May 10.9 00:38:48 10° SW 00:40:38 10° SW 00:42:05 10° SSW visible
29 May 10.6 23:15:46 10° SW 23:22:06 15° SSW 23:27:41 12° S visible
30 May 10.3 21:57:00 10° SW 22:03:39 19° SSW 22:12:28 10° SSE visible
31 May 10.6 22:53:07 10° SW 22:57:07 12° SSW 23:01:42 10° S visible
01 Jun 10.3 21:33:44 10° SW 21:38:50 15° SSW 21:45:18 10° SSE visible
